Time,TemperatureF,DewpointF,PressureIn,WindDirection,WindDirectionDegrees,WindSpeedMPH,WindSpeedGustMPH,Humidity,HourlyPrecipIn,Conditions,Clouds,dailyrainin,SoftwareType,DateUTC
2013-03-27 00:08:00,33.5,23.0,29.47,West,260,2.0,6.0,65,0.00,,,0.00,Wunderground v.1.15,2013-03-27 04:08:00,
2013-03-27 00:19:00,34.4,23.1,29.47,WNW,296,3.0,3.0,63,0.00,,,0.00,Wunderground v.1.15,2013-03-27 04:19:00,
2013-03-27 00:29:00,34.2,23.3,29.46,WNW,285,0.0,0.0,64,0.00,,,0.00,Wunderground v.1.15,2013-03-27 04:29:00,
2013-03-27 00:39:00,32.8,22.7,29.47,WNW,284,0.0,0.0,66,0.00,,,0.00,Wunderground v.1.15,2013-03-27 04:39:00,
2013-03-27 00:49:00,32.8,23.0,29.47,WNW,303,1.0,1.0,67,0.00,,,0.00,Wunderground v.1.15,2013-03-27 04:49:00,
2013-03-27 00:59:00,33.4,22.9,29.47,West,277,1.0,5.0,65,0.00,,,0.00,Wunderground v.1.15,2013-03-27 04:59:00,
2013-03-27 01:09:00,34.1,22.8,29.47,West,279,3.0,6.0,63,0.00,,,0.00,Wunderground v.1.15,2013-03-27 05:09:00,
2013-03-27 01:19:00,34.1,22.8,29.47,WNW,287,3.0,4.0,63,0.00,,,0.00,Wunderground v.1.15,2013-03-27 05:19:00,
2013-03-27 01:29:00,33.8,22.5,29.47,West,271,3.0,3.0,63,0.00,,,0.00,Wunderground v.1.15,2013-03-27 05:29:00,
2013-03-27 01:39:00,34.0,22.3,29.46,West,269,4.0,4.0,62,0.00,,,0.00,Wunderground v.1.15,2013-03-27 05:39:00,
2013-03-27 01:49:00,34.4,22.7,29.46,WNW,302,6.0,6.0,62,0.00,,,0.00,Wunderground v.1.15,2013-03-27 05:49:00,
2013-03-27 01:59:00,34.4,22.7,29.46,West,259,7.0,14.0,62,0.00,,,0.00,Wunderground v.1.15,2013-03-27 05:59:00,
2013-03-27 02:09:00,34.3,22.6,29.46,WNW,284,7.0,7.0,62,0.00,,,0.00,Wunderground v.1.15,2013-03-27 06:09:00,
2013-03-27 02:19:00,34.0,23.1,29.46,West,277,5.0,5.0,64,0.00,,,0.00,Wunderground v.1.15,2013-03-27 06:19:00,
2013-03-27 02:29:00,33.7,22.4,29.46,West,267,6.0,6.0,63,0.00,,,0.00,Wunderground v.1.15,2013-03-27 06:29:00,
2013-03-27 02:39:00,33.7,22.4,29.46,West,273,5.0,11.0,63,0.00,,,0.00,Wunderground v.1.15,2013-03-27 06:39:00,
2013-03-27 02:49:00,33.8,22.5,29.46,West,265,7.0,7.0,63,0.00,,,0.00,Wunderground v.1.15,2013-03-27 06:49:00,
2013-03-27 02:59:00,33.9,22.6,29.46,West,278,5.0,6.0,63,0.00,,,0.00,Wunderground v.1.15,2013-03-27 06:59:00,
2013-03-27 03:09:00,33.7,22.8,29.46,WSW,252,4.0,15.0,64,0.00,,,0.00,Wunderground v.1.15,2013-03-27 07:09:00,
2013-03-27 03:19:00,33.0,22.5,29.46,WNW,294,6.0,7.0,65,0.00,,,0.00,Wunderground v.1.15,2013-03-27 07:19:00,
2013-03-27 03:29:00,32.6,22.5,29.46,West,269,6.0,6.0,66,0.00,,,0.00,Wunderground v.1.15,2013-03-27 07:29:00,
2013-03-27 03:39:00,32.6,22.5,29.46,WNW,286,6.0,6.0,66,0.00,,,0.00,Wunderground v.1.15,2013-03-27 07:39:00,
2013-03-27 03:49:00,32.4,22.3,29.45,West,271,6.0,6.0,66,0.00,,,0.00,Wunderground v.1.15,2013-03-27 07:49:00,
2013-03-27 03:59:00,32.3,22.2,29.45,WNW,284,8.0,8.0,66,0.00,,,0.00,Wunderground v.1.15,2013-03-27 07:59:00,
2013-03-27 04:09:00,32.0,22.3,29.45,West,276,8.0,15.0,67,0.00,,,0.00,Wunderground v.1.15,2013-03-27 08:09:00,
2013-03-27 04:19:00,31.9,22.2,29.46,WSW,257,7.0,10.0,67,0.00,,,0.00,Wunderground v.1.15,2013-03-27 08:19:00,
2013-03-27 04:29:00,31.9,22.2,29.45,West,269,8.0,8.0,67,0.00,,,0.00,Wunderground v.1.15,2013-03-27 08:29:00,
2013-03-27 04:39:00,31.6,22.2,29.45,WNW,286,8.0,8.0,68,0.00,,,0.00,Wunderground v.1.15,2013-03-27 08:39:00,
2013-03-27 04:49:00,31.4,22.1,29.46,West,267,7.0,7.0,68,0.00,,,0.00,Wunderground v.1.15,2013-03-27 08:49:00,
2013-03-27 04:59:00,31.3,22.0,29.46,West,269,5.0,6.0,68,0.00,,,0.00,Wunderground v.1.15,2013-03-27 08:59:00,
2013-03-27 05:09:00,31.1,22.1,29.46,WNW,284,4.0,12.0,69,0.00,,,0.00,Wunderground v.1.15,2013-03-27 09:09:00,
2013-03-27 05:19:00,30.9,21.9,29.46,West,281,3.0,3.0,69,0.00,,,0.00,Wunderground v.1.15,2013-03-27 09:19:00,
2013-03-27 05:29:00,30.0,21.4,29.46,ENE,63,1.0,1.0,70,0.00,,,0.00,Wunderground v.1.15,2013-03-27 09:29:00,
2013-03-27 05:39:00,29.8,21.9,29.47,East,101,1.0,1.0,72,0.00,,,0.00,Wunderground v.1.15,2013-03-27 09:39:00,
2013-03-27 05:49:00,29.8,21.9,29.47,ESE,105,1.0,1.0,72,0.00,,,0.00,Wunderground v.1.15,2013-03-27 09:49:00,
2013-03-27 05:59:00,29.5,21.6,29.47,ESE,105,0.0,0.0,72,0.00,,,0.00,Wunderground v.1.15,2013-03-27 09:59:00,
2013-03-27 06:08:00,29.1,21.5,29.48,ESE,113,0.0,14.0,73,0.00,,,0.00,Wunderground v.1.15,2013-03-27 10:08:00,
2013-03-27 06:19:00,29.3,21.7,29.47,SSE,155,0.0,1.0,73,0.00,,,0.00,Wunderground v.1.15,2013-03-27 10:19:00,
2013-03-27 06:29:00,29.3,21.7,29.48,SSE,155,0.0,2.0,73,0.00,,,0.00,Wunderground v.1.15,2013-03-27 10:29:00,
2013-03-27 06:39:00,29.2,21.6,29.48,SSE,155,0.0,0.0,73,0.00,,,0.00,Wunderground v.1.15,2013-03-27 10:39:00,
2013-03-27 06:49:00,28.8,21.6,29.48,SSE,154,0.0,0.0,74,0.00,,,0.00,Wunderground v.1.15,2013-03-27 10:49:00,
2013-03-27 06:59:00,28.8,21.6,29.48,NNW,342,1.0,1.0,74,0.00,,,0.00,Wunderground v.1.15,2013-03-27 10:59:00,
2013-03-27 07:09:00,29.7,22.4,29.48,NNW,342,2.0,8.0,74,0.00,,,0.00,Wunderground v.1.15,2013-03-27 11:09:00,
2013-03-27 07:19:00,30.5,22.5,29.48,NNW,340,2.0,2.0,72,0.00,,,0.00,Wunderground v.1.15,2013-03-27 11:19:00,
2013-03-27 07:29:00,32.2,22.8,29.49,NNW,340,1.0,1.0,68,0.00,,,0.00,Wunderground v.1.15,2013-03-27 11:29:00,
2013-03-27 07:39:00,33.0,22.9,29.49,NNW,340,1.0,1.0,66,0.00,,,0.00,Wunderground v.1.15,2013-03-27 11:39:00,
2013-03-27 07:49:00,32.8,23.0,29.49,NW,315,5.0,7.0,67,0.00,,,0.00,Wunderground v.1.15,2013-03-27 11:49:00,
2013-03-27 07:58:00,33.1,23.3,29.50,NW,311,5.0,5.0,67,0.00,,,0.00,Wunderground v.1.15,2013-03-27 11:58:00,
2013-03-27 08:09:00,33.6,23.4,29.50,NNW,338,2.0,6.0,66,0.00,,,0.00,Wunderground v.1.15,2013-03-27 12:09:00,
2013-03-27 08:19:00,34.0,23.8,29.50,NNW,342,4.0,4.0,66,0.00,,,0.00,Wunderground v.1.15,2013-03-27 12:19:00,
2013-03-27 08:29:00,33.9,23.7,29.50,WNW,300,7.0,7.0,66,0.00,,,0.00,Wunderground v.1.15,2013-03-27 12:29:00,
2013-03-27 08:39:00,34.2,24.4,29.51,WNW,292,8.0,8.0,67,0.00,,,0.00,Wunderground v.1.15,2013-03-27 12:39:00,
2013-03-27 08:49:00,34.1,25.0,29.51,NW,306,8.0,8.0,69,0.00,,,0.00,Wunderground v.1.15,2013-03-27 12:49:00,
2013-03-27 08:59:00,34.1,25.3,29.51,NW,315,9.0,9.0,70,0.00,,,0.00,Wunderground v.1.15,2013-03-27 12:59:00,
2013-03-27 09:09:00,34.4,25.6,29.51,WNW,289,8.0,14.0,70,0.00,,,0.00,Wunderground v.1.15,2013-03-27 13:09:00,
2013-03-27 09:19:00,34.6,25.5,29.51,NW,305,9.0,9.0,69,0.00,,,0.00,Wunderground v.1.15,2013-03-27 13:19:00,
2013-03-27 09:29:00,34.9,25.8,29.52,NW,315,7.0,7.0,69,0.00,,,0.00,Wunderground v.1.15,2013-03-27 13:29:00,
2013-03-27 09:39:00,35.3,25.8,29.52,NE,37,4.0,6.0,68,0.00,,,0.00,Wunderground v.1.15,2013-03-27 13:39:00,
2013-03-27 09:49:00,35.5,26.0,29.52,NNW,340,6.0,6.0,68,0.00,,,0.00,Wunderground v.1.15,2013-03-27 13:49:00,
2013-03-27 09:59:00,35.7,26.5,29.52,North,350,5.0,8.0,69,0.00,,,0.00,Wunderground v.1.15,2013-03-27 13:59:00,
2013-03-27 10:09:00,35.8,26.6,29.52,NW,304,6.0,17.0,69,0.00,,,0.00,Wunderground v.1.15,2013-03-27 14:09:00,
2013-03-27 10:19:00,36.1,26.9,29.52,NW,319,6.0,6.0,69,0.00,,,0.00,Wunderground v.1.15,2013-03-27 14:19:00,
2013-03-27 10:29:00,36.3,27.1,29.52,WNW,292,6.0,10.0,69,0.00,,,0.00,Wunderground v.1.15,2013-03-27 14:29:00,
2013-03-27 10:39:00,36.6,27.0,29.52,NNW,327,5.0,5.0,68,0.00,,,0.00,Wunderground v.1.15,2013-03-27 14:39:00,
2013-03-27 10:49:00,37.0,27.8,29.52,NW,306,4.0,8.0,69,0.00,,,0.00,Wunderground v.1.15,2013-03-27 14:49:00,
2013-03-27 10:59:00,37.3,27.3,29.52,NNW,347,4.0,4.0,67,0.00,,,0.00,Wunderground v.1.15,2013-03-27 14:59:00,
2013-03-27 11:09:00,37.8,27.8,29.51,North,355,4.0,16.0,67,0.00,,,0.00,Wunderground v.1.15,2013-03-27 15:09:00,
2013-03-27 11:19:00,38.5,27.7,29.51,NNE,31,5.0,5.0,65,0.00,,,0.00,Wunderground v.1.15,2013-03-27 15:19:00,
2013-03-27 11:29:00,38.7,27.6,29.52,NW,320,7.0,7.0,64,0.00,,,0.00,Wunderground v.1.15,2013-03-27 15:29:00,
2013-03-27 11:39:00,39.1,27.9,29.51,NW,319,6.0,6.0,64,0.00,,,0.00,Wunderground v.1.15,2013-03-27 15:39:00,
2013-03-27 11:49:00,38.8,27.3,29.52,NNW,342,8.0,8.0,63,0.00,,,0.00,Wunderground v.1.15,2013-03-27 15:49:00,
2013-03-27 11:59:00,38.5,28.1,29.51,North,10,8.0,8.0,66,0.00,,,0.00,Wunderground v.1.15,2013-03-27 15:59:00,
2013-03-27 12:09:00,38.9,27.4,29.51,NNE,19,8.0,13.0,63,0.00,,,0.00,Wunderground v.1.15,2013-03-27 16:09:00,
2013-03-27 12:19:00,38.9,27.8,29.52,North,10,6.0,11.0,64,0.00,,,0.00,Wunderground v.1.15,2013-03-27 16:19:00,
2013-03-27 12:29:00,38.6,27.5,29.52,North,350,8.0,8.0,64,0.00,,,0.00,Wunderground v.1.15,2013-03-27 16:29:00,
2013-03-27 12:39:00,39.1,27.6,29.52,NNW,334,5.0,5.0,63,0.00,,,0.00,Wunderground v.1.15,2013-03-27 16:39:00,
2013-03-27 12:49:00,38.9,27.0,29.52,NNW,335,8.0,8.0,62,0.00,,,0.00,Wunderground v.1.15,2013-03-27 16:49:00,
2013-03-27 12:59:00,38.7,27.2,29.52,NW,321,8.0,9.0,63,0.00,,,0.00,Wunderground v.1.15,2013-03-27 16:59:00,
2013-03-27 13:09:00,38.9,27.4,29.52,NW,321,8.0,8.0,63,0.00,,,0.00,Wunderground v.1.15,2013-03-27 17:09:00,
2013-03-27 13:19:00,39.3,27.7,29.52,NW,309,7.0,9.0,63,0.00,,,0.00,Wunderground v.1.15,2013-03-27 17:19:00,
2013-03-27 13:29:00,39.4,27.8,29.52,NW,317,6.0,8.0,63,0.00,,,0.00,Wunderground v.1.15,2013-03-27 17:29:00,
2013-03-27 13:39:00,39.2,27.3,29.52,WNW,296,7.0,7.0,62,0.00,,,0.00,Wunderground v.1.15,2013-03-27 17:39:00,
2013-03-27 13:49:00,39.3,27.7,29.52,WNW,302,6.0,8.0,63,0.00,,,0.00,Wunderground v.1.15,2013-03-27 17:49:00,
2013-03-27 13:59:00,39.1,27.6,29.52,NW,306,8.0,8.0,63,0.00,,,0.00,Wunderground v.1.15,2013-03-27 17:59:00,
2013-03-27 14:09:00,39.5,28.3,29.52,WNW,302,8.0,8.0,64,0.00,,,0.00,Wunderground v.1.15,2013-03-27 18:09:00,
2013-03-27 14:19:00,39.3,28.1,29.52,NW,326,9.0,9.0,64,0.00,,,0.00,Wunderground v.1.15,2013-03-27 18:19:00,
2013-03-27 14:29:00,38.9,28.1,29.52,NNW,340,9.0,18.0,65,0.00,,,0.00,Wunderground v.1.15,2013-03-27 18:29:00,
2013-03-27 14:39:00,39.1,28.3,29.52,NNW,329,10.0,10.0,65,0.00,,,0.00,Wunderground v.1.15,2013-03-27 18:39:00,
2013-03-27 14:49:00,39.5,28.7,29.52,NW,304,7.0,9.0,65,0.00,,,0.00,Wunderground v.1.15,2013-03-27 18:49:00,
2013-03-27 14:59:00,39.6,28.4,29.52,NNE,23,7.0,7.0,64,0.00,,,0.00,Wunderground v.1.15,2013-03-27 18:59:00,
2013-03-27 15:09:00,38.9,28.5,29.52,WNW,303,8.0,17.0,66,0.00,,,0.00,Wunderground v.1.15,2013-03-27 19:09:00,
2013-03-27 15:19:00,38.9,29.2,29.52,NW,317,7.0,7.0,68,0.00,,,0.00,Wunderground v.1.15,2013-03-27 19:19:00,
2013-03-27 15:29:00,39.0,29.0,29.52,NNW,342,6.0,10.0,67,0.00,,,0.00,Wunderground v.1.15,2013-03-27 19:29:00,
2013-03-27 15:39:00,39.4,29.0,29.52,NNW,337,6.0,6.0,66,0.00,,,0.00,Wunderground v.1.15,2013-03-27 19:39:00,
2013-03-27 15:49:00,39.3,28.9,29.52,NE,36,7.0,12.0,66,0.00,,,0.00,Wunderground v.1.15,2013-03-27 19:49:00,
2013-03-27 15:59:00,38.8,28.8,29.53,NNW,330,9.0,14.0,67,0.00,,,0.00,Wunderground v.1.15,2013-03-27 19:59:00,
2013-03-27 16:09:00,38.3,29.4,29.53,NE,52,8.0,8.0,70,0.00,,,0.00,Wunderground v.1.15,2013-03-27 20:09:00,
2013-03-27 16:19:00,38.2,29.6,29.53,NW,311,7.0,7.0,71,0.00,,,0.00,Wunderground v.1.15,2013-03-27 20:19:00,
2013-03-27 16:29:00,38.1,29.2,29.53,WNW,297,7.0,9.0,70,0.00,,,0.00,Wunderground v.1.15,2013-03-27 20:29:00,
2013-03-27 16:39:00,37.9,29.3,29.53,North,355,6.0,10.0,71,0.00,,,0.00,Wunderground v.1.15,2013-03-27 20:39:00,
2013-03-27 16:49:00,37.4,29.5,29.54,WNW,303,7.0,7.0,73,0.00,,,0.00,Wunderground v.1.15,2013-03-27 20:49:00,
2013-03-27 16:59:00,37.0,30.1,29.54,NNW,335,6.0,6.0,76,0.00,,,0.00,Wunderground v.1.15,2013-03-27 20:59:00,
2013-03-27 17:09:00,36.9,30.4,29.54,NW,313,5.0,17.0,77,0.00,,,0.00,Wunderground v.1.15,2013-03-27 21:09:00,
2013-03-27 17:19:00,36.6,30.4,29.55,NW,321,5.0,6.0,78,0.00,,,0.00,Wunderground v.1.15,2013-03-27 21:19:00,
2013-03-27 17:29:00,36.5,30.3,29.55,NNW,335,6.0,6.0,78,0.00,,,0.00,Wunderground v.1.15,2013-03-27 21:29:00,
2013-03-27 17:39:00,36.6,30.7,29.56,NNW,334,5.0,5.0,79,0.00,,,0.00,Wunderground v.1.15,2013-03-27 21:39:00,
2013-03-27 17:49:00,36.6,30.4,29.56,NNW,327,4.0,7.0,78,0.00,,,0.00,Wunderground v.1.15,2013-03-27 21:49:00,
2013-03-27 17:59:00,36.4,30.5,29.56,NNW,329,4.0,5.0,79,0.00,,,0.00,Wunderground v.1.15,2013-03-27 21:59:00,
2013-03-27 18:09:00,36.1,30.5,29.56,NNW,328,5.0,5.0,80,0.00,,,0.00,Wunderground v.1.15,2013-03-27 22:09:00,
2013-03-27 18:19:00,35.7,30.7,29.57,NNW,333,5.0,5.0,82,0.00,,,0.00,Wunderground v.1.15,2013-03-27 22:19:00,
2013-03-27 18:29:00,35.3,30.9,29.57,NW,323,4.0,4.0,84,0.00,,,0.00,Wunderground v.1.15,2013-03-27 22:29:00,
2013-03-27 18:39:00,35.1,30.8,29.57,NNW,347,3.0,6.0,84,0.00,,,0.00,Wunderground v.1.15,2013-03-27 22:39:00,
2013-03-27 18:49:00,34.9,30.8,29.58,NNW,335,3.0,3.0,85,0.00,,,0.00,Wunderground v.1.15,2013-03-27 22:49:00,
2013-03-27 18:59:00,34.6,30.8,29.59,NNW,337,3.0,3.0,86,0.00,,,0.00,Wunderground v.1.15,2013-03-27 22:59:00,
2013-03-27 19:09:00,34.3,30.8,29.59,NNW,328,2.0,11.0,87,0.00,,,0.00,Wunderground v.1.15,2013-03-27 23:09:00,
2013-03-27 19:19:00,34.1,30.9,29.59,NNW,330,1.0,1.0,88,0.00,,,0.00,Wunderground v.1.15,2013-03-27 23:19:00,
2013-03-27 19:29:00,33.9,31.0,29.58,NNW,330,0.0,0.0,89,0.00,,,0.00,Wunderground v.1.15,2013-03-27 23:29:00,
2013-03-27 19:39:00,33.8,31.2,29.58,NNW,327,1.0,2.0,90,0.00,,,0.00,Wunderground v.1.15,2013-03-27 23:39:00,
2013-03-27 19:49:00,33.7,31.1,29.58,NNW,333,2.0,2.0,90,0.00,,,0.00,Wunderground v.1.15,2013-03-27 23:49:00,
2013-03-27 19:59:00,33.6,31.0,29.58,NNW,342,1.0,1.0,90,0.00,,,0.00,Wunderground v.1.15,2013-03-27 23:59:00,
2013-03-27 20:09:00,33.5,31.2,29.58,NNW,342,1.0,1.0,91,0.00,,,0.00,Wunderground v.1.15,2013-03-28 00:09:00,
2013-03-27 20:19:00,33.5,31.2,29.58,NNW,342,1.0,2.0,91,0.00,,,0.00,Wunderground v.1.15,2013-03-28 00:19:00,
2013-03-27 20:29:00,33.5,31.2,29.58,NNW,342,0.0,0.0,91,0.00,,,0.00,Wunderground v.1.15,2013-03-28 00:29:00,
2013-03-27 20:39:00,33.5,31.2,29.58,NNW,342,0.0,0.0,91,0.00,,,0.00,Wunderground v.1.15,2013-03-28 00:39:00,
2013-03-27 20:49:00,33.4,31.1,29.59,NNW,342,0.0,0.0,91,0.00,,,0.00,Wunderground v.1.15,2013-03-28 00:49:00,
2013-03-27 20:59:00,33.3,31.2,29.59,NNW,342,0.0,0.0,92,0.00,,,0.00,Wunderground v.1.15,2013-03-28 00:59:00,
2013-03-27 21:09:00,33.3,31.2,29.59,NNW,329,1.0,5.0,92,0.00,,,0.00,Wunderground v.1.15,2013-03-28 01:09:00,
2013-03-27 21:19:00,33.4,31.1,29.60,NW,307,1.0,2.0,91,0.00,,,0.00,Wunderground v.1.15,2013-03-28 01:19:00,
2013-03-27 21:29:00,33.4,31.1,29.60,NNE,15,2.0,2.0,91,0.00,,,0.00,Wunderground v.1.15,2013-03-28 01:29:00,
2013-03-27 21:39:00,33.4,31.1,29.60,NNE,28,3.0,3.0,91,0.00,,,0.00,Wunderground v.1.15,2013-03-28 01:39:00,
2013-03-27 21:49:00,33.4,31.1,29.60,North,11,3.0,3.0,91,0.00,,,0.00,Wunderground v.1.15,2013-03-28 01:49:00,
2013-03-27 21:59:00,33.4,31.1,29.60,NNE,29,2.0,4.0,91,0.00,,,0.00,Wunderground v.1.15,2013-03-28 01:59:00,
2013-03-27 22:09:00,33.3,31.0,29.60,NNE,31,1.0,1.0,91,0.00,,,0.00,Wunderground v.1.15,2013-03-28 02:09:00,
2013-03-27 22:19:00,33.3,31.0,29.60,North,360,1.0,3.0,91,0.00,,,0.00,Wunderground v.1.15,2013-03-28 02:19:00,
2013-03-27 22:29:00,33.3,31.0,29.60,North,350,2.0,2.0,91,0.00,,,0.00,Wunderground v.1.15,2013-03-28 02:29:00,
2013-03-27 22:39:00,33.2,30.9,29.60,NNE,16,2.0,2.0,91,0.00,,,0.00,Wunderground v.1.15,2013-03-28 02:39:00,
2013-03-27 22:49:00,33.1,30.8,29.60,NW,310,0.0,3.0,91,0.00,,,0.00,Wunderground v.1.15,2013-03-28 02:49:00,
2013-03-27 22:59:00,33.1,31.0,29.60,NNE,12,1.0,1.0,92,0.00,,,0.00,Wunderground v.1.15,2013-03-28 02:59:00,
2013-03-27 23:09:00,33.1,31.0,29.60,NW,313,1.0,1.0,92,0.00,,,0.00,Wunderground v.1.15,2013-03-28 03:09:00,
2013-03-27 23:19:00,32.9,30.8,29.60,NW,313,0.0,0.0,92,0.00,,,0.00,Wunderground v.1.15,2013-03-28 03:19:00,
2013-03-27 23:29:00,32.8,30.7,29.60,NW,313,0.0,0.0,92,0.00,,,0.00,Wunderground v.1.15,2013-03-28 03:29:00,
2013-03-27 23:39:00,32.8,30.7,29.60,NW,313,0.0,0.0,92,0.00,,,0.00,Wunderground v.1.15,2013-03-28 03:39:00,
2013-03-27 23:49:00,32.7,30.6,29.60,NW,313,0.0,0.0,92,0.00,,,0.00,Wunderground v.1.15,2013-03-28 03:49:00,
2013-03-27 23:59:00,32.6,30.5,29.60,NW,313,0.0,0.0,92,0.00,,,0.00,Wunderground v.1.15,2013-03-28 03:59:00,